TimeMDT,TemperatureF,Dew PointF,Humidity,Sea Level PressureIn,VisibilityMPH,Wind Direction,Wind SpeedMPH,Gust SpeedMPH,PrecipitationIn,Events,Conditions,WindDirDegrees,DateUTC
12:15 AM,39.2,15.8,39,30.14,10.0,NNW,8.1,-,N/A,,Clear,340,2013-03-12 06:15:00
12:35 AM,35.6,15.8,44,30.14,10.0,North,10.4,-,N/A,,Clear,350,2013-03-12 06:35:00
12:55 AM,39.2,17.6,42,30.14,10.0,NNW,9.2,-,N/A,,Clear,340,2013-03-12 06:55:00
1:15 AM,37.4,17.6,45,30.14,10.0,NNW,9.2,-,N/A,,Clear,340,2013-03-12 07:15:00
1:55 AM,39.2,19.4,45,30.14,10.0,North,10.4,-,N/A,,Clear,350,2013-03-12 07:55:00
2:15 AM,37.4,17.6,45,30.14,10.0,North,12.7,-,N/A,,Clear,350,2013-03-12 08:15:00
2:35 AM,37.4,17.6,45,30.14,10.0,NNW,12.7,-,N/A,,Clear,330,2013-03-12 08:35:00
2:55 AM,37.4,17.6,45,30.14,10.0,NW,11.5,-,N/A,,Clear,320,2013-03-12 08:55:00
3:15 AM,37.4,17.6,45,30.14,10.0,NNW,8.1,-,N/A,,Clear,330,2013-03-12 09:15:00
3:35 AM,37.4,17.6,45,30.13,10.0,NW,12.7,-,N/A,,Clear,310,2013-03-12 09:35:00
3:55 AM,37.4,17.6,45,30.13,10.0,NNE,5.8,-,N/A,,Clear,20,2013-03-12 09:55:00
4:15 AM,37.4,17.6,45,30.13,10.0,North,12.7,-,N/A,,Clear,360,2013-03-12 10:15:00
4:55 AM,35.6,15.8,44,30.13,10.0,North,9.2,-,N/A,,Clear,350,2013-03-12 10:55:00
5:15 AM,32.0,14.0,48,30.13,10.0,NNW,11.5,-,N/A,,Clear,330,2013-03-12 11:15:00
5:35 AM,32.0,14.0,48,30.14,10.0,NNW,11.5,-,N/A,,Clear,330,2013-03-12 11:35:00
6:15 AM,32.0,14.0,48,30.14,10.0,NNW,8.1,-,N/A,,Clear,340,2013-03-12 12:15:00
6:35 AM,32.0,12.2,44,30.15,10.0,NNW,10.4,-,N/A,,Clear,330,2013-03-12 12:35:00
6:55 AM,32.0,14.0,48,30.15,10.0,NNW,9.2,-,N/A,,Clear,330,2013-03-12 12:55:00
7:15 AM,32.0,12.2,44,30.15,10.0,NNW,10.4,-,N/A,,Clear,330,2013-03-12 13:15:00
7:35 AM,32.0,12.2,44,30.16,10.0,NW,9.2,-,N/A,,Clear,320,2013-03-12 13:35:00
7:55 AM,35.6,14.0,41,30.17,10.0,NNW,8.1,-,N/A,,Clear,330,2013-03-12 13:55:00
8:15 AM,39.2,14.0,36,30.17,10.0,NNW,8.1,-,N/A,,Clear,340,2013-03-12 14:15:00
8:35 AM,44.6,15.8,31,30.18,10.0,North,5.8,-,N/A,,Clear,10,2013-03-12 14:35:00
8:55 AM,48.2,15.8,27,30.19,10.0,NNW,4.6,-,N/A,,Clear,340,2013-03-12 14:55:00
9:15 AM,51.8,14.0,22,30.21,10.0,Calm,Calm,-,N/A,,Clear,0,2013-03-12 15:15:00
9:35 AM,53.6,12.2,19,30.21,10.0,Calm,Calm,-,N/A,,Clear,0,2013-03-12 15:35:00
9:55 AM,55.4,14.0,20,30.22,10.0,SE,8.1,-,N/A,,Clear,140,2013-03-12 15:55:00
10:15 AM,57.2,14.0,18,30.23,10.0,SSE,8.1,-,N/A,,Clear,160,2013-03-12 16:15:00
10:35 AM,57.2,14.0,18,30.23,10.0,South,8.1,-,N/A,,Clear,170,2013-03-12 16:35:00
10:55 AM,57.2,14.0,18,30.24,10.0,South,8.1,-,N/A,,Clear,170,2013-03-12 16:55:00
11:15 AM,57.2,14.0,18,30.24,10.0,South,8.1,-,N/A,,Clear,180,2013-03-12 17:15:00
11:35 AM,59.0,14.0,17,30.25,10.0,SSE,5.8,-,N/A,,Clear,160,2013-03-12 17:35:00
11:55 AM,59.0,12.2,16,30.25,10.0,South,6.9,-,N/A,,Clear,180,2013-03-12 17:55:00
12:15 PM,60.8,10.4,14,30.25,10.0,South,4.6,-,N/A,,Clear,190,2013-03-12 18:15:00
12:35 PM,62.6,10.4,13,30.25,10.0,West,3.5,-,N/A,,Clear,270,2013-03-12 18:35:00
12:55 PM,64.4,10.4,12,30.24,10.0,SE,8.1,-,N/A,,Clear,130,2013-03-12 18:55:00
1:15 PM,64.4,12.2,13,30.23,10.0,SW,5.8,-,N/A,,Clear,230,2013-03-12 19:15:00
1:35 PM,64.4,14.0,14,30.22,10.0,SSE,6.9,-,N/A,,Clear,150,2013-03-12 19:35:00
1:55 PM,66.2,14.0,13,30.22,10.0,South,11.5,-,N/A,,Clear,170,2013-03-12 19:55:00
2:15 PM,66.2,14.0,13,30.21,10.0,SSE,10.4,18.4,N/A,,Clear,160,2013-03-12 20:15:00
2:35 PM,66.2,14.0,13,30.21,10.0,South,6.9,-,N/A,,Clear,180,2013-03-12 20:35:00
2:55 PM,66.2,14.0,13,30.20,10.0,SSE,8.1,16.1,N/A,,Clear,160,2013-03-12 20:55:00
3:15 PM,66.2,14.0,13,30.20,10.0,South,15.0,20.7,N/A,,Clear,170,2013-03-12 21:15:00
3:35 PM,66.2,14.0,13,30.20,10.0,South,6.9,-,N/A,,Clear,170,2013-03-12 21:35:00
3:55 PM,66.2,14.0,13,30.19,10.0,SSW,13.8,17.3,N/A,,Clear,200,2013-03-12 21:55:00
4:15 PM,66.2,14.0,13,30.19,10.0,South,11.5,18.4,N/A,,Clear,170,2013-03-12 22:15:00
4:35 PM,66.2,12.2,12,30.19,10.0,South,5.8,-,N/A,,Clear,190,2013-03-12 22:35:00
4:55 PM,66.2,12.2,12,30.19,10.0,SSE,10.4,16.1,N/A,,Clear,150,2013-03-12 22:55:00
5:15 PM,66.2,12.2,12,30.19,10.0,SSE,10.4,-,N/A,,Clear,150,2013-03-12 23:15:00
5:55 PM,66.2,12.2,12,30.19,10.0,SE,9.2,-,N/A,,Clear,140,2013-03-12 23:55:00
6:15 PM,64.4,12.2,13,30.20,10.0,SSE,10.4,-,N/A,,Clear,150,2013-03-13 00:15:00
6:35 PM,64.4,12.2,13,30.21,10.0,SSE,9.2,-,N/A,,Clear,150,2013-03-13 00:35:00
6:55 PM,62.6,12.2,14,30.21,10.0,SSE,8.1,-,N/A,,Clear,150,2013-03-13 00:55:00
7:15 PM,59.0,10.4,15,30.21,10.0,SSE,6.9,-,N/A,,Clear,150,2013-03-13 01:15:00
7:35 PM,57.2,10.4,16,30.22,10.0,SE,6.9,-,N/A,,Clear,140,2013-03-13 01:35:00
7:55 PM,57.2,10.4,16,30.23,10.0,SE,5.8,-,N/A,,Clear,130,2013-03-13 01:55:00
8:15 PM,57.2,10.4,16,30.23,10.0,SE,5.8,-,N/A,,Clear,140,2013-03-13 02:15:00
8:35 PM,55.4,10.4,17,30.24,10.0,SE,5.8,-,N/A,,Clear,140,2013-03-13 02:35:00
8:55 PM,53.6,10.4,18,30.25,10.0,ESE,4.6,-,N/A,,Clear,120,2013-03-13 02:55:00
9:35 PM,41.0,8.6,26,30.26,10.0,Calm,Calm,-,N/A,,Clear,0,2013-03-13 03:35:00
9:55 PM,44.6,14.0,29,30.27,10.0,Calm,Calm,-,N/A,,Clear,0,2013-03-13 03:55:00
10:15 PM,41.0,8.6,26,30.28,10.0,NNE,3.5,-,N/A,,Clear,20,2013-03-13 04:15:00
10:35 PM,41.0,10.4,29,30.28,10.0,ENE,4.6,-,N/A,,Clear,70,2013-03-13 04:35:00
10:55 PM,41.0,10.4,29,30.29,10.0,NE,5.8,-,N/A,,Clear,40,2013-03-13 04:55:00
11:35 PM,39.2,12.2,33,30.29,10.0,North,10.4,-,N/A,,Clear,360,2013-03-13 05:35:00
11:55 PM,41.0,15.8,36,30.29,10.0,North,10.4,-,N/A,,Clear,360,2013-03-13 05:55:00